Location: Sungai Bunut
(2.6333°N, 113.7333°E)
Time: 08:39:52
(UTC+00:00)

Courier 1B - Pass Details

Date: 12 December 2023
Orbit: 962 x 1209 km, 28.3° (Epoch: 03 March)

Event Time Altitude Azimuth Distance (km) Brightness Sun altitude
Exits shadow 19:00:15 13° 61° (ENE) 2,896 10.1 -45.9°
Drops below altitude 10° 19:00:49 10° 61° (ENE) 3,088 10.3 -45.8°
Sets 19:03:36 0° 61° (ENE) 4,025 11.0 -45.2°
